RH
59 76 91 51 47 48 57 66 70 57 45 48 47 46 40 36 35 35 32 31 28 28 28 24 24 25 25 26 28 28 80 96 98 100 100 100 97 93 84 68 57 53 49 42
62 84 45 48 51 54 59 70 71 54 42 43 49 53 48 39 33 29 27 30 30 31 32 31 26 27 27 27 27 31 74 99 99 97 97 99 96 91 86 79 62 51 45 42
64 53 42 48 55 62 65 70 63 60 49 51 60 60 44 36 29 26 27 30 32 31 36 40 39 30 29 29 30 33 82 99 99 97 96 98 92 87 94 89 79 52 46 41
62 44 50 56 64 57 88 45 49 60 74 88 57 87 57 40 31 26 26 30 31 43 46 46 45 42 31 31 29 56 97 100 100 94 100 99 95 94 82 82 76 55 44 39
67 49 62 71 59 46 67 48 59 65 77 88 71 96 65 37 34 28 26 30 45 46 46 46 47 43 40 30 46 77 91 100 99 100 100 97 97 94 87 83 63 52 44 35
63 46 54 57 52 53 50 56 54 67 92 98 67 78 65 38 28 27 35 44 44 44 42 49 52 50 42 32 73 87 99 100 100 100 100 97 97 99 92 86 64 57 47 43
58 50 50 50 64 45 44 64 93 89 95 83 42 56 44 31 36 43 45 43 42 48 52 56 54 51 43 85 97 100 100 100 100 100 100 100 98 96 88 81 65 66 61 57
87 78 54 56 57 57 56 59 94 97 90 77 53 74 49 25 36 38 36 42 52 52 55 66 57 51 66 92 96 99 100 100 100 100 100 100 94 94 92 71 62 69 66 63
61 63 38 40 39 43 51 74 62 91 76 85 65 41 30 29 44 44 48 55 65 70 66 71 64 47 93 93 97 100 100 100 100 100 100 100 99 90 87 78 62 70 70 73
44 73 42 38 42 47 52 45 78 90 97 90 68 53 70 39 51 49 60 54 61 75 73 75 48 79 94 96 98 100 100 100 100 100 100 100 90 84 82 74 75 76 75 79
44 50 52 42 46 49 54 71 69 96 99 96 92 61 33 35 44 64 64 61 74 79 84 78 70 92 97 100 100 100 100 100 100 100 96 93 87 84 76 79 81 79 80 77
47 53 75 52 36 34 32 41 44 88 79 82 79 74 33 31 46 65 63 81 83 85 92 96 96 96 98 99 100 100 100 100 100 100 94 90 81 79 82 82 83 82 80 75
44 63 80 60 47 42 46 41 41 45 55 65 87 67 27 30 48 56 88 92 85 88 95 98 97 97 98 99 100 100 100 100 100 97 95 87 80 80 77 77 78 77 72 65
50 53 61 68 50 49 58 50 46 50 78 65 63 55 40 32 52 62 85 90 90 90 95 97 97 98 98 98 98 99 100 100 100 97 94 86 82 80 77 74 71 63 53 44
56 69 60 56 51 51 54 56 53 54 49 63 54 49 33 35 52 64 93 90 87 92 94 97 98 98 98 98 96 97 99 100 100 99 99 96 84 75 69 62 52 45 36 30
56 80 66 71 53 52 53 43 44 44 41 42 41 35 24 35 46 58 93 90 91 91 94 94 98 97 98 97 96 95 98 100 97 100 100 97 90 78 60 44 40 33 29 31
59 77 74 81 61 59 64 42 35 37 35 34 38 31 30 38 49 58 96 91 95 96 95 97 97 97 98 98 93 95 98 100 91 90 91 87 71 53 45 39 34 30 30 31
52 62 74 87 72 76 36 29 29 37 37 35 30 33 36 42 52 78 90 96 94 96 98 98 98 99 100 100 100 100 100 100 100 100 90 73 48 44 40 36 32 31 28 29
50 60 74 86 76 55 43 30 35 39 40 30 33 35 38 44 47 87 85 89 97 98 98 99 99 100 100 100 100 98 95 93 90 89 79 56 44 40 36 33 28 27 28 31
58 58 70 70 80 72 34 32 34 28 49 34 33 36 47 51 71 84 90 90 93 97 100 99 100 100 100 100 100 98 96 90 86 76 67 49 40 35 33 33 33 30 28 30
76 71 84 75 82 64 39 39 30 39 42 40 36 36 49 57 58 62 78 91 94 97 100 100 99 99 100 100 97 100 100 98 87 74 66 45 39 33 32 33 30 27 26 29
79 85 87 80 81 81 41 35 36 38 35 37 39 40 48 51 51 84 72 94 90 90 95 99 99 100 100 97 95 100 100 98 84 66 47 39 34 32 31 27 26 25 25 26
67 56 70 60 59 37 35 31 31 34 38 37 37 42 46 51 53 82 72 73 85 92 91 96 99 100 100 100 96 96 90 69 57 45 39 35 31 30 29 25 27 30 29 32
38 40 45 47 37 43 40 38 29 31 34 34 34 44 45 52 54 83 75 74 72 89 94 88 93 97 96 92 86 71 57 46 41 38 36 33 30 29 26 26 28 30 33 32
41 43 44 44 34 29 32 29 33 35 36 32 34 44 49 52 56 73 81 77 76 70 73 81 77 68 64 64 55 50 47 42 37 34 33 31 31 30 31 32 32 32 34 30
43 43 46 46 33 34 36 35 37 38 36 35 37 42 50 51 60 62 74 69 68 65 62 59 56 53 50 47 42 38 36 35 31 32 31 31 30 31 31 31 37 35 29 29
Wind_Speed
3 2 4 7 5 7 9 11 14 17 17 18 17 22 26 26 24 20 16 8 7 6 6 17 15 20 24 24 23 25 24 21 24 28 27 26 29 28 25 11 15 23 25 22
2 6 2 4 6 8 10 13 17 14 10 13 19 25 23 23 19 10 4 5 6 6 6 7 13 15 22 23 24 21 24 28 27 30 28 23 30 27 24 14 11 16 24 22
6 7 11 5 7 10 9 13 15 17 18 12 12 15 10 20 16 14 8 8 7 1 5 8 9 15 20 24 22 24 27 29 30 30 28 22 29 27 23 21 16 18 21 22
8 1 4 8 9 11 6 6 11 17 14 8 2 13 8 14 9 10 2 3 2 6 6 10 14 22 22 26 26 28 28 32 33 33 31 32 27 25 29 21 19 17 21 22
8 4 5 7 6 5 9 8 13 19 15 9 9 5 6 9 8 9 7 5 8 8 10 15 18 30 30 27 28 30 29 31 33 36 32 30 24 28 30 22 20 21 21 23
13 5 5 4 8 9 15 12 16 11 3 1 9 6 10 10 11 9 6 7 6 9 16 20 26 33 28 28 31 32 31 30 33 33 33 32 32 32 37 26 22 24 24 23
5 6 5 3 6 7 6 10 4 4 2 6 13 14 9 19 6 6 6 10 9 10 17 17 20 16 15 25 28 27 28 26 31 34 33 32 31 26 39 38 24 20 25 23
2 7 6 8 5 5 9 2 2 6 5 18 12 6 6 9 6 8 12 11 15 22 18 18 20 13 15 24 25 25 28 27 31 34 32 34 37 30 21 33 26 18 23 25
4 4 3 8 4 2 2 3 6 6 11 7 4 8 19 10 10 16 13 16 25 24 19 17 18 5 21 22 24 27 28 28 33 35 34 34 33 35 24 21 32 24 25 25
3 7 6 2 3 8 7 2 2 1 5 7 5 18 5 17 11 11 12 16 26 24 21 18 6 8 20 19 22 26 27 29 33 34 31 34 34 33 32 26 30 30 29 26
4 3 4 5 5 5 3 3 5 1 3 3 8 10 7 19 5 10 18 24 22 19 17 8 5 15 19 20 22 24 26 28 30 33 31 30 30 35 30 31 31 33 30 29
7 4 5 8 16 8 3 4 6 3 6 5 7 17 17 11 12 15 25 20 17 13 8 7 8 12 14 17 20 22 24 29 28 28 35 29 28 34 31 30 31 32 30 29
2 4 5 8 2 1 3 5 6 8 5 16 8 11 6 23 17 18 20 20 12 8 5 5 8 9 10 16 20 23 26 29 32 34 32 27 29 32 33 32 30 32 32 29
2 4 7 8 11 11 19 19 12 8 4 11 17 26 24 21 17 21 21 14 15 5 5 5 8 8 11 20 24 25 28 29 31 33 31 31 27 30 34 33 31 32 30 31
3 6 9 13 15 17 19 23 19 14 15 10 23 21 20 14 15 13 11 11 12 3 5 5 6 8 11 18 25 28 33 32 31 30 27 25 30 32 33 34 35 33 31 30
6 5 7 12 16 16 16 16 14 18 17 17 16 16 9 10 12 9 10 15 6 2 3 5 5 8 9 18 23 29 31 32 31 29 26 23 25 27 29 31 32 34 31 29
5 3 3 6 9 14 9 5 3 6 7 8 8 8 13 15 15 7 7 12 8 3 2 5 6 7 10 15 26 28 28 33 38 36 30 23 24 26 31 31 33 34 31 29
6 4 2 5 7 3 3 5 4 6 11 11 7 8 9 12 10 6 6 7 9 5 5 7 7 11 12 18 25 28 28 29 31 30 30 26 26 31 31 31 32 31 28 26
9 6 3 3 4 10 11 2 0 2 7 3 5 7 7 15 7 3 8 7 4 4 3 6 16 19 22 23 27 31 27 26 28 27 28 27 28 31 30 30 30 28 28 26
5 6 5 3 4 5 2 4 4 3 4 5 5 5 4 11 5 3 7 8 5 5 5 11 21 23 24 24 29 32 25 26 24 24 25 27 31 33 32 30 28 26 25 24
3 4 13 10 4 8 7 6 5 2 3 7 6 4 3 3 2 4 4 5 8 10 11 14 19 20 22 26 30 24 23 22 26 28 29 29 30 32 31 28 26 24 23 22
10 8 5 4 6 9 8 4 5 2 2 5 6 5 2 4 3 4 5 5 6 7 11 13 17 19 22 27 29 21 21 27 29 28 28 29 29 29 28 27 24 23 21 19
5 6 5 10 7 2 5 0 1 3 2 3 4 5 4 4 4 4 3 6 5 8 11 11 18 20 19 22 27 26 25 27 30 31 32 31 29 28 26 26 23 20 17 16
4 5 3 3 6 10 7 7 3 2 2 4 2 3 3 4 4 7 5 5 4 8 9 12 15 16 16 20 20 27 28 30 32 30 30 30 28 25 22 20 19 19 17 15
4 7 6 5 7 2 6 4 5 2 3 1 3 0 2 4 3 6 6 6 5 10 12 11 12 14 17 21 23 25 30 30 29 29 28 28 27 26 24 20 17 16 13 11
5 6 5 5 4 4 2 4 2 1 1 3 2 2 3 1 3 4 6 9 11 12 15 16 15 20 20 24 26 27 30 33 32 29 29 27 27 24 23 21 18 12 12 10
Wind_Direction
125 348 268 302 5 323 301 290 286 287 290 285 298 297 298 301 294 282 269 256 294 316 341 326 272 241 242 237 230 239 197 189 181 185 177 166 159 153 162 179 175 164 156 160
250 248 29 326 291 277 284 290 288 288 298 307 306 301 296 288 285 287 313 11 310 273 289 289 281 264 240 239 232 229 201 183 183 191 184 173 163 161 157 155 166 170 160 160
255 266 323 300 289 294 287 287 296 293 314 302 316 300 312 306 293 286 228 184 233 248 349 334 323 268 244 231 227 216 195 180 186 186 177 162 152 142 152 148 177 191 164 157
262 128 277 283 279 282 295 271 307 305 316 310 35 298 315 280 284 290 318 222 288 30 358 339 321 313 255 230 225 201 187 182 181 185 172 166 160 139 134 155 177 180 162 156
256 287 343 315 259 333 251 302 298 285 283 303 290 237 269 288 290 292 293 307 22 348 328 309 292 277 272 226 200 186 188 178 181 175 172 165 149 135 138 149 171 174 159 154
250 273 274 230 305 279 272 287 294 281 135 336 261 191 280 303 301 315 24 12 349 323 319 310 295 284 262 209 177 178 177 177 173 172 168 157 150 145 139 150 175 168 152 151
311 250 153 204 277 279 4 336 316 343 343 239 333 320 262 286 40 26 343 328 320 335 313 304 295 282 217 150 156 164 168 164 170 165 160 155 149 152 148 166 166 159 153 148
314 334 167 147 223 271 309 311 185 302 312 297 286 246 246 315 65 14 340 352 348 324 311 302 295 281 140 144 157 159 162 161 160 159 157 155 151 156 162 161 166 165 155 152
311 261 171 214 262 94 30 233 206 269 263 276 247 277 321 353 20 353 357 347 332 318 315 303 287 184 131 151 161 160 163 165 158 157 152 155 156 155 154 165 160 161 160 149
310 303 263 129 193 229 206 326 359 284 304 310 309 295 277 321 332 338 325 326 341 316 312 304 280 118 132 144 155 153 162 161 157 154 148 146 146 150 153 160 151 157 150 146
291 233 272 298 213 247 197 235 201 144 237 254 307 305 276 313 330 341 339 336 324 307 303 337 83 97 127 135 143 151 155 150 144 142 147 142 154 146 144 145 147 148 149 145
208 280 284 249 273 271 185 269 273 141 258 246 281 273 286 311 26 359 333 320 309 308 345 56 71 100 109 127 138 152 139 132 125 125 129 144 148 130 138 140 141 145 140 136
136 244 309 315 23 94 207 229 277 281 278 273 283 275 330 317 350 356 334 328 318 317 355 90 97 99 108 118 121 134 130 119 116 115 124 131 129 128 130 129 135 137 134 139
36 246 220 239 265 309 293 287 283 274 261 278 258 285 304 320 336 346 328 329 320 344 20 76 97 103 118 123 125 126 121 117 114 119 112 114 121 121 129 135 137 133 136 134
210 256 256 264 274 284 282 280 282 260 257 252 276 290 304 333 328 335 359 315 320 30 43 68 84 114 117 126 127 124 115 111 121 120 119 120 125 128 131 132 133 135 132 132
213 269 309 292 270 269 279 275 264 265 269 261 271 282 319 339 320 335 1 331 310 13 72 95 95 118 132 133 132 128 123 125 122 112 113 133 129 125 128 128 134 133 133 133
200 210 321 267 345 310 285 266 230 265 270 270 279 290 335 325 326 335 3 323 338 6 101 125 131 127 131 144 142 136 133 133 134 133 128 126 129 129 131 135 135 133 134 134
237 198 214 285 311 267 231 246 220 256 274 280 269 330 319 310 309 54 29 334 345 10 24 97 105 100 116 126 131 125 125 127 126 122 129 138 133 135 136 136 134 133 134 126
218 216 254 246 274 284 291 217 293 26 303 16 332 314 328 314 313 109 26 358 19 26 49 105 119 116 111 108 117 117 115 118 117 125 133 139 140 133 138 134 131 134 135 135
324 187 184 203 241 255 273 182 127 126 294 343 323 315 8 319 0 349 11 2 25 56 49 117 122 111 109 110 112 110 111 116 117 126 132 143 142 141 138 138 138 139 138 133
154 204 222 225 269 279 261 132 147 54 255 313 312 332 56 298 282 325 32 39 43 62 64 88 112 110 111 121 124 113 121 120 133 140 143 146 146 143 142 140 140 139 137 134
171 171 184 204 217 262 164 103 197 207 293 338 321 347 18 313 27 75 355 68 71 79 83 96 106 109 122 134 133 120 119 137 138 138 142 143 144 141 140 138 141 139 137 131
193 199 184 193 211 261 192 106 92 106 255 311 345 330 343 330 78 105 54 67 88 93 93 103 120 114 127 142 151 136 140 140 141 141 143 143 142 141 142 142 138 137 140 141
249 178 227 148 252 221 228 239 148 90 278 303 321 335 315 313 92 124 107 105 84 117 114 118 123 124 121 135 138 139 143 145 144 137 137 142 138 135 138 140 145 147 149 145
182 139 194 256 283 255 241 229 141 347 301 263 267 221 0 330 94 138 144 128 118 118 133 133 132 132 132 136 135 142 147 151 141 141 139 139 140 143 145 146 148 146 145 150
183 193 177 220 209 147 118 128 80 339 30 22 355 306 150 289 132 135 145 143 147 139 131 127 124 122 129 136 139 145 151 155 147 138 145 147 149 150 151 148 143 141 142 145